Find Starlink 31532

NORAD ID: 59349 Int'l Des: 2024-060 Owner: SPXS Country: US Constellation: starlink operational
LEOCIRCULAR

当前视图

正在加载3D地球...

About Starlink 31532

Starlink 31532 (NORAD 59349) is a starlink constellation satellite (v2 mini) launched Mar 31, 2024 by SPXS of US. It operates in LEO, CIRCULAR orbit with a mass of 730.00 kg.

关于 Starlink 31532

正在加载描述...

即将过境

Passes for default location (London). Set your location on the main map for personalized predictions.

高度历史

Loading altitude history...

两行轨道根数

1 59349U 24060B 26171.35188080 .00000522 00000-0 28492-4 0 9990
2 59349 43.0055 40.0789 0001307 268.9984 91.0718 15.27577057125813
Epoch: Jun 20, 2026 • Age: 26 hours

当前状态

高度 489.5 km
速度 7.62 km/s
星下点 -27.14°S, 179.64°E
发射日期 Mar 31, 2024
运行时间 2.2 years
类型 internet

技术详情

分类 Payload
质量 730.00 kg
干质量 700.00 kg
总质量 730.00 kg
长度 0.30 m
直径 4.10 m
跨度 29.00 m
形状 Box + pan
制造商 SPXS
平台类型 Starlink V2M
阶段状态 In Orbit
所有者/国家 SPXS/US

Most Searched